Location: New York
(40.7140°N, 74.0060°W)
Time: 19:06:05
(UTC-04:00)

ISS - Visible Passes

Search period start: 22 October 2014 00:00
Search period end: 01 November 2014 00:00
Orbit: 413 x 416 km, 51.6° (Epoch: 22 October)

Date Brightness Start Highest point End Pass type
(mag) Time Alt. Az. Time Alt. Az. Time Alt. Az.
22 Oct -2.5 19:42:11 10° NW 19:44:59 39° N 19:44:59 39° N visible
23 Oct -2.1 18:53:13 10° NW 18:56:10 28° NNE 18:58:03 17° ENE visible
23 Oct -0.5 20:29:46 10° WNW 20:30:55 19° WNW 20:30:55 19° WNW visible
24 Oct -3.3 19:40:31 10° NW 19:43:52 78° SW 19:44:05 73° S visible
25 Oct -3.2 18:51:22 10° NW 18:54:41 60° NNE 18:57:21 15° ESE visible
25 Oct -0.2 20:29:00 10° W 20:30:15 14° WSW 20:30:15 14° WSW visible
26 Oct -1.3 19:39:07 10° WNW 19:41:59 27° SW 19:43:42 17° S visible
27 Oct -2.3 18:49:36 10° WNW 18:52:50 49° SW 18:56:03 10° SE visible
29 Oct -0.3 18:48:19 10° W 18:50:38 18° SW 18:52:56 10° S visible
